Location: Glums�
(55.3568°N, 11.6856°E)
Time: 18:54:16
(UTC+00:00)

NOSS 7 (E) - Pass Details

Date: 07 June 2020
Orbit: 394 x 1778 km, 63.3° (Epoch: 06 July)

Event Time Altitude Azimuth Distance (km) Brightness Sun altitude
Exits shadow 00:09:36 15° 220° (SW) 1,277 6.1 -10.9°
Maximum altitude 00:12:13 69° 138° (SE) 438 4.2 -10.8°
Drops below altitude 10° 00:15:16 10° 54° (NE) 1,447 7.8 -10.7°
Sets 00:17:18 0° 52° (NE) 2,335 9.0 -10.6°
